Regional Weather Roundup
Issued by NWS Boston, MA

Home | Current Version | Previous Version | Text Only | Print | Product List | Glossary On
Versions: 1 2 3 4 5 6 7 8 9 10 11 12 13 14 15 16 17 18 19 20 21 22 23 24 25 26 27 28 29 30 31 32 33 34 35 36 37 38 39 40 41 42 43 44 45 46 47 48 49 50
000
ASUS41 KBOX 300910
RWRBOX

REGIONAL WEATHER ROUNDUP
NATIONAL WEATHER SERVICE TAUNTON MA
500 AM EDT WED JUL 30 2014

NOTE:  "FAIR" INDICATES FEW OR NO CLOUDS BELOW 12,000 FEET WITH NO
SIGNIFICANT WEATHER AND/OR OBSTRUCTIONS TO VISIBILITY.  THE FOLLOWING
OBSERVATION LOCATIONS DO NOT REPORT PRESENT WEATHER...PROVINCETOWN...
SMITHFIELD...BLOCK ISLAND...KEENE...AND OXFORD.

MAZALL-301000-
EASTERN MASSACHUSETTS

CITY           SKY/WX    TMP DP  RH WIND       PRES   REMARKS
BOSTON         PTCLDY    64  56  75 W5        29.97R
BEVERLY        CLEAR     58  56  93 CALM      29.96R
LAWRENCE       MOCLDY    58  57  97 CALM      29.99R
BEDFORD        PTCLDY    54  54 100 CALM      29.96R
BLUE HILL        N/A     60  54  80 NW6       29.97R
NORWOOD        CLOUDY    56  55  97 CALM      29.97R
MARSHFIELD     CLEAR     57  57 100 CALM      29.98R
PLYMOUTH       CLEAR     55  52  89 CALM      29.97R
TAUNTON        PTCLDY    52  51  97 CALM      29.97R FOG
NEW BEDFORD    CLEAR     56  55  97 CALM      29.96R FOG
$$

MAZALL-301000-
CAPE COD AND THE ISLANDS

CITY           SKY/WX    TMP DP  RH WIND       PRES   REMARKS
FALMOUTH       CLEAR     55  55 100 CALM      29.97R
HYANNIS        CLEAR     58  55  90 CALM      29.96R
CHATHAM        PTCLDY    60  58  92 CALM      29.97R
PROVINCETOWN   CLEAR     57  54  88 CALM      29.97R
NANTUCKET      PTCLDY    61  60  97 CALM      29.97R
MARTHAS VNYRD  CLOUDY    52  50  93 CALM      29.96S FOG
$$

MAZALL-301000-
CENTRAL AND WESTERN MASSACHUSETTS

CITY           SKY/WX    TMP DP  RH WIND       PRES   REMARKS
WORCESTER      CLOUDY    59  52  77 NW7       29.99R
FITCHBURG      CLOUDY    63  56  78 CALM      29.99R
ORANGE         CLOUDY    56  55  97 CALM      29.99R
SPRINGFIELD    MOCLDY    54  53  97 NE2       29.98R
WESTFIELD      MOCLDY    56  53  90 CALM      29.98R
NORTH ADAMS    CLOUDY    55  54  96 CALM      30.00R
PITTSFIELD     CLOUDY    56  55  97 CALM      29.99R
$$

RIZALL-301000-
RHODE ISLAND

CITY           SKY/WX    TMP DP  RH WIND       PRES   REMARKS
PROVIDENCE     CLEAR     62  57  83 CALM      29.97S
NEWPORT        CLEAR     60  57  89 CALM      29.97R
BLOCK ISLAND   CLEAR     61  57  88 CALM      29.97R
SMITHFIELD     CLOUDY    57  52  82 CALM      29.97R
WESTERLY       CLEAR     57  55  93 CALM      29.98R
$$

CTZALL-301000-
CONNECTICUT

CITY           SKY/WX    TMP DP  RH WIND       PRES   REMARKS
BRADLEY INTL   MOCLDY    62  55  77 CALM      29.98R
HARTFORD       CLOUDY    62  57  83 CALM      29.98R
BRIDGEPORT     CLOUDY    61  57  87 CALM      29.98R
DANBURY        PTCLDY    55  52  89 SW3       30.00R
GROTON         CLEAR     57  56  96 CALM      29.97R
NEW HAVEN      MOCLDY    60  55  83 CALM      29.98R
CHESTER        FAIR      57  54  88 CALM      29.99R
MERIDEN        CLEAR     57  55  93 CALM      29.98R
WILLIMANTIC    CLEAR     57  55  93 CALM      29.99R
OXFORD         CLEAR     55  52  88 CALM      30.00R
$$

MEZ002-015-021-024-NHZ003-005-008-011-012-014-VTZ005-008-301000-
NORTHERN NEW ENGLAND

CITY           SKY/WX    TMP DP  RH WIND       PRES   REMARKS
PORTLAND ME    CLOUDY    61  55  81 NE6       29.97R
BANGOR ME      MOCLDY    56  53  90 CALM      30.01R
CONCORD NH     CLOUDY    58  54  86 N3        29.99R
MANCHESTER NH  CLOUDY    63  55  75 N6        29.96R
NASHUA NH      MOCLDY    61  58  90 CALM      29.98R
PORTSMOUTH NH  MOCLDY    60  56  87 N3        29.96R
JAFFREY NH     CLOUDY    53  52  96 CALM      30.00R
KEENE NH       CLOUDY    55  46  71 S3        30.00R
BURLINGTON VT  CLEAR     52  50  93 E5        30.00R
MT. WASHINGTON MOCLDY    41  36  81 S8          N/A
$$

NYZ052-076-301000-
EASTERN NEW YORK

CITY           SKY/WX    TMP DP  RH WIND       PRES   REMARKS
ALBANY         CLOUDY    61  53  75 CALM      29.99R
NEW YORK CITY  MOCLDY    67  55  65 NW9       29.97R
$$

ANZALL-301000-
MARINE OBSERVATIONS

STATION/POSITION TIME  TEMP    WIND        PRES    VSBY  WAVE
                       AIR SEA DIR/SP/G                  HT/PER
                 (UTC) (F)     (DEG/KT/KT) (MB)    (MI)  (FT/S)
BOSTON BUOY      NOT AVBL
BUZZARDS BAY     NOT AVBL
NANTUCKET SOUND  NOT AVBL
MASS BAY-STELLWA NOT AVBL
ISLE OF SHOALS   NOT AVBL
S OF BLOCK IS    NOT AVBL
$$

......................KEY.........................
  SKY/WX - SKY CONDITION/PRESENT WEATHER
  TMP    - TEMPERATURE IN FAHRENHEIT
  DWPT   - DEWPOINT IN FAHRENHEIT
  RH     - RELATIVE HUMIDITY IN PERCENT
  WIND   - DIRECTION AND SPEED IN MPH
  PRES   - MEAN SEA LEVEL PRESSURE IN INCHES OF HG
  WCI    - WIND CHILL INDEX
  VSB    - VISIBILITY IN MILES
  HX     - HEAT INDEX
  TC     - TEMPERATURE IN CELSIUS
  VRB    - VARIABLE WIND DIRECTION
  N/A    - NOT AVAILABLE



USA.gov is the U.S. government's official web portal to all federal, state and local government web resources and services.